Flag for U.S.A. Weather past 2 weeks in Butte, Montana, U.S.A.

Now
72 °F

Partly sunny.


Feels Like: 77 °F
Forecast: 55 / 79 °F
Wind: 7 mph from Northwest

Location: Mooney Airport

Current Time: Jul 22, 2014 at 9:49:31 PM

Latest Report: Jul 22, 2014 at 8:53 PM


Visibility: 10 mi

Pressure: 30.09 "Hg

Humidity: 40%

Dew point: 46 °F

Location of ButteLocation

Historic Weather in Butte — Graph

°F

Butte temperature yesterday

Maximum temperature yesterday: 73 °F (at 6:53 PM)
Minimum temperature yesterday: 55 °F (at 5:53 AM)
Average temperature yesterday: 64 °F

Past Weeks' High & Low Weather Summary

 TemperatureHumidityPressure
High86 °F (Jul 9, 3:53 PM)96% (Jul 16, 4:53 AM)30.25 "Hg (Jul 16, 4:53 AM)
Low45 °F (Jul 18, 6:53 AM)11% (Jul 20, 5:53 PM)29.67 "Hg (Jul 20, 7:53 PM)
Average67 °F49%29.96 "Hg
* Reported Jul 7 7:53 PM — Jul 22 7:53 PM, Butte, Weather by CustomWeather, © 2014

Note: Actual official high and low records may vary slightly from our data, if they occured in-between our weather recording intervals... More about our weather records

Advertising

Butte weather history for previous 24 hours

 ConditionsComfort  
Time TempWeatherWind HumidityBarometerVisibility
7:53 PM
Jul 22
76 °FMore clouds than sun.6 mph35%30.09 "Hg10 mi
6:53 PM79 °FScattered clouds.10 mph28%30.07 "Hg10 mi
5:53 PM80 °FLight rain. Broken clouds.3 mph31%30.07 "Hg10 mi
10:53 AM70 °FSunny.No wind51%30.12 "Hg10 mi
9:53 AM64 °FPassing clouds.No wind63%30.14 "Hg10 mi
8:53 AM61 °FPartly sunny.No wind67%30.15 "Hg10 mi
7:53 AM55 °FPassing clouds.5 mph90%30.15 "Hg10 mi
6:53 AM55 °FOvercast.3 mph83%30.14 "Hg10 mi
5:53 AM54 °FOvercast.5 mph93%30.13 "Hg10 mi
4:53 AM55 °FMostly cloudy.5 mph90%30.11 "Hg10 mi
3:53 AM55 °FOvercast.No wind90%30.11 "Hg10 mi
2:53 AM56 °FRain. Fog.6 mph87%30.11 "Hg5 mi
1:53 AM57 °FOvercast.5 mph87%30.09 "Hg10 mi
12:53 AM58 °FLight rain. Mostly cloudy.14 mph81%30.06 "Hg6 mi
11:53 PM
Jul 21
60 °FPassing clouds.6 mph67%30.05 "Hg10 mi
10:53 PM63 °FPassing clouds.No wind58%30.03 "Hg10 mi
9:53 PM67 °FSunny.8 mph47%30.00 "Hg10 mi
Weather by CustomWeather, © 2014

See weather overviewHow to use our weather pages